Flag for Czech Republic Weather past 2 weeks in Liberec, Czech Republic

Now
59 °F

Cool.


Feels Like: 59 °F
Forecast: 53 / 65 °F
Wind: 5 mph from Southeast

Location: Liberec

Current Time: Sep 18, 2014 at 4:29:53 AM

Latest Report: Sep 18, 2014 at 3:00 AM


Visibility: 12 mi

Pressure: 30.01 "Hg

Humidity: 82%

Dew point: 53 °F

Location of LiberecLocation

Historic Weather in Liberec — Graph

°F

Liberec temperature yesterday

Maximum temperature yesterday: 73 °F (at 2:00 PM)
Minimum temperature yesterday: 55 °F (at 7:00 AM)
Average temperature yesterday: 64 °F

Past Weeks' High & Low Weather Summary

 TemperatureHumidityPressure
High79 °F (Sep 5, 4:00 PM)100% (Sep 4, 2:00 AM)30.20 "Hg (Sep 4, 2:00 AM)
Low45 °F (Sep 10, 10:00 PM)41% (Sep 16, 1:00 PM)29.86 "Hg (Sep 6, 3:00 PM)
Average61 °F84%30.03 "Hg
* Reported Sep 3 3:00 AM — Sep 18 3:00 AM, Liberec, Weather by CustomWeather, © 2014

Note: Actual official high and low records may vary slightly from our data, if they occured in-between our weather recording intervals... More about our weather records

Advertising

Liberec weather history for previous 24 hours

 ConditionsComfort  
Time TempWeatherWind HumidityBarometerVisibility
3:00 AM
Sep 18
59 °FCool.5 mph82%30.01 "Hg12 mi
2:00 AM58 °FCool.2 mph83%30.03 "Hg12 mi
1:00 AM60 °FFog.3 mph81%30.02 "Hg6 mi
12:00 AM60 °FCool.2 mph81%30.02 "Hg12 mi
11:00 PM
Sep 17
60 °FCool.2 mph79%30.03 "Hg12 mi
10:00 PM60 °FClear.3 mph79%30.03 "Hg16 mi
9:00 PM58 °FClear.2 mph79%30.03 "Hg16 mi
8:00 PM60 °FClear.2 mph74%30.02 "Hg17 mi
7:00 PM67 °FPassing clouds.2 mph58%29.99 "Hg19 mi
6:00 PM70 °FMild.3 mph51%29.98 "Hg12 mi
5:00 PM71 °FScattered clouds.5 mph49%29.98 "Hg19 mi
4:00 PM72 °FScattered clouds.5 mph46%29.99 "Hg19 mi
3:00 PM73 °FScattered clouds.3 mph46%29.99 "Hg19 mi
2:00 PM73 °FScattered clouds.3 mph43%30.00 "Hg19 mi
1:00 PM72 °FPassing clouds.5 mph45%30.01 "Hg19 mi
12:00 PM70 °FPassing clouds.5 mph51%30.03 "Hg17 mi
11:00 AM69 °FPassing clouds.5 mph52%30.03 "Hg16 mi
10:00 AM67 °FPassing clouds.5 mph56%30.05 "Hg16 mi
9:00 AM65 °FSunny.2 mph68%30.05 "Hg14 mi
8:00 AM60 °FPassing clouds.2 mph83%30.06 "Hg12 mi
7:00 AM55 °FCool.1 mph91%30.08 "Hg7 mi
6:00 AM56 °FCool.2 mph88%30.07 "Hg7 mi
5:00 AM58 °FCool.2 mph85%30.07 "Hg7 mi
4:00 AM59 °FCool.3 mph82%30.07 "Hg8 mi
Weather by CustomWeather, © 2014

See weather overviewHow to use our weather pages